This is the latest recevied weather packets stored in our database for station/object WX7EM. If no packets are shown the sender has not sent any weather packets the latest 1 day(s).
| Time | Temp. | Humidity | Pressure | Rain* | Wind** | Luminosity | Snow |
|---|---|---|---|---|---|---|---|
| 1778053273 | 10.56° C | 98% | 1016.9 hPa | 0 mm | - | 0 W/m² | - |
| 1778052667 | 10.56° C | 98% | 1016.9 hPa | 0 mm | - | 0 W/m² | - |
| 1778052364 | 10.56° C | 98% | 1017 hPa | 0 mm | - | 0 W/m² | - |
| 1778051457 | 10.56° C | 98% | 1016.8 hPa | 0 mm | - | 0 W/m² | - |
| 1778051154 | 10.56° C | 97% | 1016.7 hPa | 0 mm | - | 0 W/m² | - |
| 1778050851 | 10.56° C | 97% | 1016.8 hPa | 0 mm | - | 0 W/m² | - |
| 1778050549 | 10.56° C | 97% | 1016.7 hPa | 0 mm | - | 0 W/m² | - |
| 1778049643 | 11.11° C | 97% | 1016.5 hPa | 0 mm | - | 0 W/m² | - |
| 1778049342 | 11.11° C | 97% | 1016.5 hPa | 0 mm | - | 0 W/m² | - |
| 1778048737 | 11.11° C | 97% | 1016.5 hPa | 0 mm | - | 0 W/m² | - |
| 1778048129 | 11.11° C | 97% | 1016.4 hPa | 0 mm | - | 0 W/m² | - |
| 1778047827 | 11.11° C | 96% | 1016.4 hPa | 0 mm | - | 0 W/m² | - |
| 1778047222 | 11.67° C | 96% | 1016.3 hPa | 0 mm | - | 0 W/m² | - |
| 1778046616 | 11.11° C | 95% | 1016.3 hPa | 0 mm | - | 0 W/m² | - |
| 1778045707 | 11.67° C | 95% | 1016.3 hPa | 0 mm | - | 0 W/m² | - |
| 1778044497 | 12.22° C | 94% | 1016.1 hPa | 0 mm | - | 0 W/m² | - |
| 1778044194 | 12.22° C | 94% | 1016 hPa | 0 mm | - | 0 W/m² | - |
| 1778043892 | 12.22° C | 94% | 1015.9 hPa | 0 mm | - | 0 W/m² | - |
| 1778043589 | 12.22° C | 93% | 1015.7 hPa | 0 mm | - | 0 W/m² | - |
| 1778043285 | 12.22° C | 93% | 1015.8 hPa | 0 mm | - | 0 W/m² | - |
| 1778042982 | 12.22° C | 92% | 1015.8 hPa | 0 mm | - | 0 W/m² | - |
| 1778042377 | 13.33° C | 90% | 1015.7 hPa | 0 mm | - | 0 W/m² | - |
| 1778042074 | 13.33° C | 89% | 1015.8 hPa | 0 mm | - | 0 W/m² | - |
| 1778041772 | 13.33° C | 88% | 1015.5 hPa | 0 mm | - | 0 W/m² | - |
| 1778041169 | 13.89° C | 88% | 1015.6 hPa | 0 mm | - | 0 W/m² | - |
* Rain latest hour (hover to see other rain measurements)
** Current wind speed in m/s (hover to see current wind gust speed)